Simultaneous Nadir Overpasses (SNOs) Predictions

Prediction of SNOs between GOES-17 and LANDSAT-8 Satellite Orbit:

Table of predicted SNOs for the next 14.0 days since TLE Epoch: 12/31/2021
Index Date Time (GOES-17) GOES-17 Lat,Lon LANDSAT-8 Lat,Lon Distance(km) Time Diff (sec)
1 01/01/2022 19:07:52 -0.02,-137.23 -0.63,-134.23 340.68 80
2 01/02/2022 07:31:57 0.02,-137.23 -0.42,-139.44 249.64 80
3 01/04/2022 07:17:05 0.02,-137.24 0.16,-136.47 87.27 80
4 01/04/2022 19:41:01 -0.02,-137.25 0.91,-141.63 498.65 80
5 01/06/2022 07:04:54 0.01,-137.25 0.81,-133.52 424.15 80
6 01/06/2022 19:28:50 -0.01,-137.25 0.26,-138.68 161.73 80
7 01/08/2022 19:13:58 -0.00,-137.26 -0.32,-135.72 175.12 80
8 01/09/2022 07:38:02 0.00,-137.26 -0.79,-140.91 415.26 80
9 01/11/2022 07:25:51 0.01,-137.26 -0.14,-137.96 79.22 80
10 01/13/2022 07:11:00 0.02,-137.25 0.52,-135.01 256.13 80
11 01/13/2022 19:32:15 -0.02,-137.25 0.62,-140.16 330.40 80
